SCP
0 -0 -0 0 0 0 0 0 0 0 0 0 0 0 0 0 0 0 0 0 0 0 0 0 0 0 0 0 0 0 0 0 0 0 0 0 0 0 0 0 0 0 0 0
0 0 0 0 0 0 0 0 0 0 0 0 0 0 0 0 0 0 0 0 0 0 0 0 0 0 0 0 0 0 0 0 0 0 0 0 0 0 0 0 0 0 0 0
0 0 0 0 0 0 0 0 0 0 0 0 0 0 0 0 0 0 0 0 0 0 0 0 0 0 0 0 0 0 0 0 0 0 0 0 0 0 0 -0 0 0 0 0
0 0 0 0 0 0 0 0 0 0 0 0 0 0 0 0 0 0 0 0 0 0 0 0 0 0 0 0 0 0 0 -0 0 0 0 0 0 0 0 0 -0 -0 -0 0
0 0 0 0 0 0 0 0 0 0 0 0 0 0 0 0 -0 0 0 0 0 0 0 0 0 0 0 0 0 0 0 0 0 0 -0 0 0 -0 0 -0 -0 -0 0 0
0 0 0 0 0 0 0 0 0 0 0 0 0 0 0 0 -0 0 0 0 0 0 0 0 0 0 0 0 0 0 0 0 0 0 0 0 0 -0 -0 -0 -0 -0 -0 0
0 0 0 0 0 0 0 0 0 0 0 0 0 0 0 0 0 0 -0 -0 0 0 -0 0 0 0 0 0 0 0 0 0 0 0 0 -0 0 0 0 -0 -0 -0 0 0
0 0 0 0 0 0 0 0 0 0 0 0 0 0 0 0 0 0 -0 0 -0 -0 0 -0 0 0 0 0 0 0 0 0 0 0 0 0 0 0 0 0 0 0 0 0
0 0 0 0 0 0 0 0 0 0 0 0 0 -0 -0 0 0 0 -0 -0 -0 0 0 0 0 0 0 0 0 0 0 0 0 0 -0 -0 -0 -0 0 0 0 0 0 0
0 0 0 0 0 0 0 0 0 0 0 0 0 0 0 0 -0 -0 -0 -0 0 -0 0 0 0 0 0 -0 0 0 0 0 0 0 0 0 -0 -0 -0 0 0 0 0 0
0 0 0 0 0 0 0 0 0 0 0 0 0 0 0 0 0 0 0 0 0 0 0 0 0 0 0 0 0 0 0 0 0 0 0 0 0 -0 -0 -0 0 0 0 0
0 0 0 0 0 0 0 0 0 0 0 0 0 0 0 0 0 0 0 0 -0 -0 -0 -0 -0 -0 0 0 0 0 0 0 0 0 0 0 0 0 -0 -0 0 0 -0 0
0 0 0 0 0 0 0 0 0 0 0 0 0 0 0 0 0 0 0 0 0 -0 -0 -0 -0 -0 -0 -0 0 0 0 0 0 0 0 0 0 0 0 -0 -0 0 0 0
0 0 0 0 0 0 0 0 0 0 0 0 0 0 0 0 0 0 0 0 0 0 0 -0 0 -0 -0 -0 -0 -0 0 0 0 -0 0 0 0 0 0 0 0 0 0 0
0 0 0 0 0 0 0 0 0 0 0 0 0 0 0 0 0 0 0 0 0 0 0 0 0 0 -0 -0 -0 -0 -0 0 -0 -0 0 0 0 0 0 0 0 0 0 0
0 0 0 0 0 0 0 0 0 0 0 0 0 0 0 0 0 0 0 0 0 0 0 0 0 0 0 -0 -0 -0 -0 -0 -0 -0 0 0 0 0 0 0 0 0 0 -0
0 0 0 0 0 0 0 0 0 0 0 0 0 0 0 0 0 0 0 0 0 0 0 0 0 0 0 0 0 0 0 0 0 -0 -0 0 0 0 0 0 0 0 -0 -0
0 0 0 0 0 0 0 0 0 0 0 0 0 0 0 0 0 0 0 0 0 0 0 0 0 0 0 0 0 0 0 0 0 -0 -0 -0 0 0 0 0 0 0 0 0
0 0 0 0 0 0 0 0 0 0 0 0 0 0 0 0 0 0 0 0 0 0 -0 -0 0 0 0 0 0 0 -0 0 0 -0 -0 -0 -0 0 0 0 -0 0 0 0
0 0 0 0 0 0 0 0 0 0 0 0 0 0 0 0 0 0 0 0 0 0 0 0 0 0 0 0 0 0 0 0 -0 -0 -0 -0 -0 0 0 0 0 0 -0 0
0 0 0 0 0 0 0 0 0 0 0 0 0 0 0 0 0 0 0 0 0 0 0 0 0 0 0 0 0 0 -0 -0 -0 -0 -0 -0 -0 -0 0 0 0 0 0 0
0 0 0 0 0 0 0 0 0 0 0 0 0 0 0 0 0 0 0 0 0 0 0 0 0 0 0 0 0 0 -0 -0 -0 -0 -0 -0 -0 -0 0 0 0 0 0 0
0 0 0 0 0 0 0 0 0 0 0 0 0 0 0 0 0 0 0 0 0 0 0 0 0 0 0 0 -0 -0 -0 -0 -0 -0 -0 -0 -0 -0 0 0 0 0 0 0
0 0 0 0 0 0 0 0 0 0 0 0 0 0 0 0 0 0 0 0 0 0 0 0 0 0 0 0 -0 -0 -0 -0 -0 -0 0 -0 -0 0 0 0 0 0 0 0
0 0 0 0 0 0 0 0 0 0 0 0 0 0 0 0 0 0 0 0 0 0 0 0 0 0 0 0 -0 -0 -0 0 -0 -0 -0 -0 -0 0 0 0 0 0 0 0
0 0 0 0 0 0 0 0 0 0 0 0 0 0 0 0 0 0 0 0 0 0 0 0 0 0 0 0 -0 -0 0 0 0 -0 -0 0 -0 -0 0 0 0 0 0 0
0 0 0 0 0 0 0 0 0 0 0 0 0 0 0 0 0 0 0 0 0 0 0 0 0 0 0 0 0 0 -0 -0 -0 -0 -0 -0 0 -0 -0 0 0 0 0 0
Wind_Speed_500mb
15 17 13 10 12 26 23 18 17 13 15 8 8 10 16 16 21 31 26 17 17 14 7 1 4 7 10 10 4 13 18 10 15 19 17 13 16 23 18 15 15 17 17 14
11 15 24 23 26 25 23 21 16 16 16 29 47 32 36 30 27 23 29 25 20 17 9 3 3 6 16 13 15 12 15 13 18 18 16 20 26 15 21 21 10 9 9 20
4 8 10 15 20 18 31 34 23 14 7 36 33 24 28 25 21 21 18 20 17 19 18 18 23 26 25 19 15 19 18 10 12 9 16 13 18 16 21 22 7 6 3 8
6 4 12 7 17 25 37 31 31 26 28 32 36 34 26 42 61 30 24 19 21 22 23 25 26 26 29 22 20 19 17 13 15 17 19 11 13 19 15 18 10 5 1 3
8 5 12 20 31 18 11 15 22 22 32 29 39 38 13 52 61 42 46 36 30 30 25 28 31 29 28 24 21 24 21 17 13 15 10 12 19 23 18 15 9 7 7 8
12 6 4 17 35 50 13 9 39 22 30 33 34 14 14 38 50 54 45 29 36 34 31 34 32 27 28 27 26 24 27 17 21 16 20 17 16 20 22 16 10 10 16 14
2 6 8 22 49 22 13 10 41 36 42 34 25 32 43 47 47 48 51 50 50 44 43 43 41 36 32 27 26 25 26 27 21 26 26 21 20 22 20 21 16 12 18 18
8 8 4 40 24 11 9 28 41 44 48 31 41 52 54 53 55 55 58 54 56 55 41 37 42 41 48 39 17 25 32 30 29 26 27 26 23 23 21 22 24 19 25 30
7 6 9 27 31 28 29 35 37 37 37 42 45 45 49 51 56 52 58 69 62 59 54 44 38 38 39 53 36 26 30 36 29 32 35 32 26 28 27 23 28 26 25 34
7 6 18 19 19 20 21 23 25 29 29 32 36 38 38 44 50 53 61 66 60 65 64 62 45 36 37 33 38 39 26 31 34 35 38 34 36 29 28 24 24 27 18 23
8 15 15 17 12 11 16 20 21 34 30 36 38 35 38 44 53 52 54 59 60 58 68 64 55 39 36 34 36 39 34 28 33 38 38 33 37 34 33 27 27 27 26 21
5 11 7 12 12 16 21 25 28 28 35 39 37 31 35 52 54 51 53 54 54 57 57 62 60 48 27 23 19 28 35 37 33 33 36 34 36 31 36 33 26 26 31 30
9 4 8 13 16 21 18 22 25 21 28 30 31 34 44 51 50 47 52 56 51 51 52 54 51 53 44 42 37 36 27 27 35 33 34 38 39 37 34 33 35 27 31 33
5 7 7 15 25 19 26 29 26 31 37 39 37 29 42 38 45 54 44 52 52 57 56 54 41 41 51 51 36 22 30 42 37 38 40 36 37 38 40 38 41 34 27 28
9 7 16 18 23 28 28 32 38 41 41 42 43 39 42 47 49 56 46 51 53 53 50 51 39 37 45 52 45 35 35 33 44 40 37 40 36 38 44 39 47 44 38 38
24 15 19 18 27 30 37 41 40 42 45 46 44 46 48 49 48 46 48 48 44 53 48 45 37 33 39 43 42 35 37 36 38 37 45 34 32 41 41 43 43 38 36 35
14 14 18 22 31 36 36 36 39 40 44 44 45 55 50 44 46 51 45 50 47 45 34 34 35 32 35 42 40 38 37 38 44 41 40 34 46 35 31 30 28 37 48 49
7 14 24 28 32 32 35 36 38 43 40 42 53 44 45 53 50 55 55 50 38 39 48 53 50 48 37 39 33 38 44 37 42 30 39 38 40 35 33 48 29 30 38 40
12 20 23 24 26 30 32 34 40 37 43 50 43 43 46 42 53 52 49 38 46 65 66 63 59 43 33 29 35 48 49 40 40 38 35 47 44 36 30 34 44 42 41 40
14 17 20 25 26 29 32 41 34 44 43 40 38 44 46 56 49 42 55 48 60 57 60 60 59 55 44 49 43 43 36 39 44 45 34 37 39 42 35 31 32 43 47 39
13 17 20 23 26 29 40 30 40 37 43 34 38 48 48 45 41 48 55 55 56 63 63 64 54 63 59 46 36 33 40 38 28 25 30 39 50 51 44 33 36 36 36 40
14 17 19 23 27 36 28 30 43 43 35 34 50 40 40 43 52 57 48 55 57 59 64 57 61 57 53 37 27 33 27 29 39 44 51 52 48 55 50 42 29 32 33 38
13 17 23 20 27 39 26 35 36 40 33 37 41 32 47 45 53 59 57 56 54 58 52 57 60 56 50 49 42 37 46 47 49 55 55 61 49 48 42 33 27 27 31 28
13 18 20 17 32 31 27 32 40 31 29 38 23 39 39 41 56 60 50 51 49 51 63 48 52 49 45 47 50 43 42 53 66 64 61 57 52 46 37 26 30 16 25 31
23 15 13 22 32 24 23 32 46 28 37 33 31 50 30 41 47 50 53 52 43 48 53 54 42 46 48 41 45 50 53 61 63 56 59 57 53 45 35 26 21 10 14 13
18 16 17 20 21 22 29 41 35 30 30 31 40 37 34 39 35 50 59 48 40 50 50 54 47 48 49 45 45 51 61 54 53 53 58 54 49 48 38 26 17 11 16 23
12 6 16 18 23 27 35 34 29 36 30 32 48 31 31 35 39 56 55 43 44 44 46 52 51 41 45 44 56 51 49 47 48 48 53 52 55 51 47 42 32 28 25 32
Wind_Direction_500mb
77 112 119 82 67 58 43 21 83 81 72 64 61 52 72 47 33 19 33 38 36 37 14 280 254 357 18 350 279 316 328 331 348 348 349 334 350 351 357 353 14 39 33 21
53 83 78 37 22 74 64 34 46 54 40 22 20 39 59 42 39 24 16 29 26 9 343 274 259 301 331 329 291 316 314 321 334 316 314 333 347 320 339 345 336 30 34 21
106 338 346 30 8 28 64 42 45 42 334 24 14 36 39 12 16 10 346 340 341 353 335 305 299 311 320 317 271 279 295 291 325 310 324 329 340 337 333 346 343 124 53 355
142 256 61 62 21 86 81 41 16 13 6 15 6 3 42 28 357 358 338 318 311 313 308 313 309 310 318 292 270 266 294 278 293 297 320 295 318 326 308 322 350 209 111 349
139 146 134 35 14 345 338 57 19 11 325 352 359 3 346 355 345 336 331 326 306 312 321 294 298 304 305 307 274 261 269 273 283 287 335 338 317 336 339 312 286 303 263 294
355 87 136 360 353 331 339 75 0 355 352 346 355 360 311 355 3 359 338 337 337 329 314 302 286 289 299 295 292 261 264 255 261 274 283 289 311 313 343 330 292 271 280 263
193 107 55 329 2 357 53 311 340 10 2 33 38 23 3 359 0 360 357 345 342 317 305 288 278 288 280 289 281 281 267 274 262 258 277 287 272 315 309 334 315 296 280 277
36 71 43 356 28 63 314 17 10 8 357 27 23 9 4 1 355 1 1 359 351 344 342 310 294 287 275 280 308 277 268 271 256 250 264 279 272 280 296 305 314 317 309 300
49 118 129 62 59 38 35 25 13 4 20 13 12 6 360 358 357 360 0 350 353 355 350 337 324 279 280 269 285 290 268 266 266 257 256 269 269 269 280 288 293 297 308 325
94 77 92 78 56 37 25 18 6 353 354 350 347 348 353 2 3 357 356 2 0 360 356 350 335 307 274 260 275 272 293 275 268 265 264 258 259 254 265 273 284 311 309 326
117 145 146 62 23 28 10 7 7 2 11 1 356 4 2 352 352 350 353 354 354 355 354 354 350 332 303 284 272 257 278 287 274 271 270 265 257 252 257 266 287 284 280 287
97 108 48 320 345 52 21 353 344 348 336 335 337 340 340 342 339 345 353 350 347 353 353 357 359 360 344 333 273 274 278 283 285 279 285 269 262 259 249 260 274 287 270 277
87 75 3 16 349 341 335 329 326 323 322 337 331 333 343 339 339 342 348 346 351 351 351 355 356 1 2 348 349 328 288 307 281 273 285 289 270 260 253 260 265 258 262 281
27 326 334 25 1 8 345 338 329 338 354 351 343 325 338 327 341 341 346 349 348 347 346 351 344 359 7 3 355 341 303 323 308 299 283 278 286 268 276 268 270 270 261 286
332 28 46 9 339 345 358 11 5 1 359 1 356 356 355 352 346 338 336 337 338 344 342 344 340 347 354 348 350 357 345 330 335 283 296 274 277 277 274 266 265 268 284 282
331 30 10 338 328 17 9 6 2 359 356 356 353 350 346 344 346 347 352 348 343 346 344 343 339 344 354 341 342 344 359 353 352 340 297 312 296 276 273 270 252 263 260 272
14 336 316 20 13 8 6 357 355 354 349 349 346 343 349 348 343 349 350 345 340 340 344 349 350 337 340 332 340 339 342 348 342 344 339 319 314 307 274 270 271 267 273 267
325 3 16 7 3 358 356 355 351 348 351 343 340 349 346 348 350 344 345 352 337 340 340 339 336 333 332 333 328 328 336 336 347 334 337 332 321 308 290 291 286 270 275 263
14 12 6 358 354 349 348 346 346 343 342 339 350 347 351 351 349 349 352 353 346 347 349 349 343 336 329 320 323 332 328 328 339 327 327 326 334 318 299 297 277 282 270 267
11 3 352 351 350 348 344 343 341 343 342 353 347 351 347 345 354 354 347 353 353 351 342 353 355 347 328 321 331 333 331 333 322 317 321 326 326 327 322 302 304 285 274 267
360 351 348 347 347 339 339 346 342 345 348 351 347 345 346 349 356 344 347 348 350 354 351 351 341 344 339 326 326 338 330 333 334 354 341 319 314 316 317 298 281 291 279 266
339 341 337 341 338 335 355 337 341 341 350 336 343 354 353 350 345 347 2 358 353 353 351 355 355 351 352 356 359 360 8 8 357 342 345 345 336 330 324 316 291 275 289 270
329 329 322 342 333 341 347 336 342 350 347 346 348 349 353 345 348 357 349 1 0 0 7 4 4 12 23 17 18 22 9 3 359 354 356 353 339 333 328 327 318 295 278 283
321 314 329 324 330 348 339 341 339 354 349 350 346 339 348 337 346 354 353 355 357 355 352 357 4 8 8 11 10 12 9 358 353 349 351 353 346 338 331 323 313 309 309 277
313 318 326 313 341 344 330 330 338 353 342 352 334 339 358 340 344 353 352 357 348 350 353 0 355 2 4 9 353 353 350 347 344 348 350 357 354 355 360 13 38 355 333 310
313 299 297 331 349 330 323 331 350 337 349 339 334 355 1 352 338 341 348 354 355 348 348 350 354 359 355 354 353 347 345 348 352 354 353 360 6 14 10 34 53 39 355 296
327 322 308 324 325 314 317 339 332 333 347 331 337 353 352 346 336 341 355 358 346 352 360 354 345 350 357 352 350 351 353 356 354 355 357 1 9 15 18 23 25 15 18 23
Wind_Speed_850mb
15 17 13 10 12 26 23 18 17 13 15 8 8 10 16 16 21 31 26 17 17 14 7 1 4 7 10 10 4 13 18 10 15 19 17 13 16 23 18 15 15 17 17 14
11 15 24 23 26 25 23 21 16 16 16 29 47 32 36 30 27 23 29 25 20 17 9 3 3 6 16 13 15 12 15 13 18 18 16 20 26 15 21 21 10 9 9 20
4 8 10 15 20 18 31 34 23 14 7 36 33 24 28 25 21 21 18 20 17 19 18 18 23 26 25 19 15 19 18 10 12 9 16 13 18 16 21 22 7 6 3 8
6 4 12 7 17 25 37 31 31 26 28 32 36 34 26 42 61 30 24 19 21 22 23 25 26 26 29 22 20 19 17 13 15 17 19 11 13 19 15 18 10 5 1 3
8 5 12 20 31 18 11 15 22 22 32 29 39 38 13 52 61 42 46 36 30 30 25 28 31 29 28 24 21 24 21 17 13 15 10 12 19 23 18 15 9 7 7 8
12 6 4 17 35 50 13 9 39 22 30 33 34 14 14 38 50 54 45 29 36 34 31 34 32 27 28 27 26 24 27 17 21 16 20 17 16 20 22 16 10 10 16 14
2 6 8 22 49 22 13 10 41 36 42 34 25 32 43 47 47 48 51 50 50 44 43 43 41 36 32 27 26 25 26 27 21 26 26 21 20 22 20 21 16 12 18 18
8 8 4 40 24 11 9 28 41 44 48 31 41 52 54 53 55 55 58 54 56 55 41 37 42 41 48 39 17 25 32 30 29 26 27 26 23 23 21 22 24 19 25 30
7 6 9 27 31 28 29 35 37 37 37 42 45 45 49 51 56 52 58 69 62 59 54 44 38 38 39 53 36 26 30 36 29 32 35 32 26 28 27 23 28 26 25 34
7 6 18 19 19 20 21 23 25 29 29 32 36 38 38 44 50 53 61 66 60 65 64 62 45 36 37 33 38 39 26 31 34 35 38 34 36 29 28 24 24 27 18 23
8 15 15 17 12 11 16 20 21 34 30 36 38 35 38 44 53 52 54 59 60 58 68 64 55 39 36 34 36 39 34 28 33 38 38 33 37 34 33 27 27 27 26 21
5 11 7 12 12 16 21 25 28 28 35 39 37 31 35 52 54 51 53 54 54 57 57 62 60 48 27 23 19 28 35 37 33 33 36 34 36 31 36 33 26 26 31 30
9 4 8 13 16 21 18 22 25 21 28 30 31 34 44 51 50 47 52 56 51 51 52 54 51 53 44 42 37 36 27 27 35 33 34 38 39 37 34 33 35 27 31 33
5 7 7 15 25 19 26 29 26 31 37 39 37 29 42 38 45 54 44 52 52 57 56 54 41 41 51 51 36 22 30 42 37 38 40 36 37 38 40 38 41 34 27 28
9 7 16 18 23 28 28 32 38 41 41 42 43 39 42 47 49 56 46 51 53 53 50 51 39 37 45 52 45 35 35 33 44 40 37 40 36 38 44 39 47 44 38 38
24 15 19 18 27 30 37 41 40 42 45 46 44 46 48 49 48 46 48 48 44 53 48 45 37 33 39 43 42 35 37 36 38 37 45 34 32 41 41 43 43 38 36 35
14 14 18 22 31 36 36 36 39 40 44 44 45 55 50 44 46 51 45 50 47 45 34 34 35 32 35 42 40 38 37 38 44 41 40 34 46 35 31 30 28 37 48 49
7 14 24 28 32 32 35 36 38 43 40 42 53 44 45 53 50 55 55 50 38 39 48 53 50 48 37 39 33 38 44 37 42 30 39 38 40 35 33 48 29 30 38 40
12 20 23 24 26 30 32 34 40 37 43 50 43 43 46 42 53 52 49 38 46 65 66 63 59 43 33 29 35 48 49 40 40 38 35 47 44 36 30 34 44 42 41 40
14 17 20 25 26 29 32 41 34 44 43 40 38 44 46 56 49 42 55 48 60 57 60 60 59 55 44 49 43 43 36 39 44 45 34 37 39 42 35 31 32 43 47 39
13 17 20 23 26 29 40 30 40 37 43 34 38 48 48 45 41 48 55 55 56 63 63 64 54 63 59 46 36 33 40 38 28 25 30 39 50 51 44 33 36 36 36 40
14 17 19 23 27 36 28 30 43 43 35 34 50 40 40 43 52 57 48 55 57 59 64 57 61 57 53 37 27 33 27 29 39 44 51 52 48 55 50 42 29 32 33 38
13 17 23 20 27 39 26 35 36 40 33 37 41 32 47 45 53 59 57 56 54 58 52 57 60 56 50 49 42 37 46 47 49 55 55 61 49 48 42 33 27 27 31 28
13 18 20 17 32 31 27 32 40 31 29 38 23 39 39 41 56 60 50 51 49 51 63 48 52 49 45 47 50 43 42 53 66 64 61 57 52 46 37 26 30 16 25 31
23 15 13 22 32 24 23 32 46 28 37 33 31 50 30 41 47 50 53 52 43 48 53 54 42 46 48 41 45 50 53 61 63 56 59 57 53 45 35 26 21 10 14 13
18 16 17 20 21 22 29 41 35 30 30 31 40 37 34 39 35 50 59 48 40 50 50 54 47 48 49 45 45 51 61 54 53 53 58 54 49 48 38 26 17 11 16 23
12 6 16 18 23 27 35 34 29 36 30 32 48 31 31 35 39 56 55 43 44 44 46 52 51 41 45 44 56 51 49 47 48 48 53 52 55 51 47 42 32 28 25 32
Wind_Direction_850mb
77 112 119 82 67 58 43 21 83 81 72 64 61 52 72 47 33 19 33 38 36 37 14 280 254 357 18 350 279 316 328 331 348 348 349 334 350 351 357 353 14 39 33 21
53 83 78 37 22 74 64 34 46 54 40 22 20 39 59 42 39 24 16 29 26 9 343 274 259 301 331 329 291 316 314 321 334 316 314 333 347 320 339 345 336 30 34 21
106 338 346 30 8 28 64 42 45 42 334 24 14 36 39 12 16 10 346 340 341 353 335 305 299 311 320 317 271 279 295 291 325 310 324 329 340 337 333 346 343 124 53 355
142 256 61 62 21 86 81 41 16 13 6 15 6 3 42 28 357 358 338 318 311 313 308 313 309 310 318 292 270 266 294 278 293 297 320 295 318 326 308 322 350 209 111 349
139 146 134 35 14 345 338 57 19 11 325 352 359 3 346 355 345 336 331 326 306 312 321 294 298 304 305 307 274 261 269 273 283 287 335 338 317 336 339 312 286 303 263 294
355 87 136 360 353 331 339 75 0 355 352 346 355 360 311 355 3 359 338 337 337 329 314 302 286 289 299 295 292 261 264 255 261 274 283 289 311 313 343 330 292 271 280 263
193 107 55 329 2 357 53 311 340 10 2 33 38 23 3 359 0 360 357 345 342 317 305 288 278 288 280 289 281 281 267 274 262 258 277 287 272 315 309 334 315 296 280 277
36 71 43 356 28 63 314 17 10 8 357 27 23 9 4 1 355 1 1 359 351 344 342 310 294 287 275 280 308 277 268 271 256 250 264 279 272 280 296 305 314 317 309 300
49 118 129 62 59 38 35 25 13 4 20 13 12 6 360 358 357 360 0 350 353 355 350 337 324 279 280 269 285 290 268 266 266 257 256 269 269 269 280 288 293 297 308 325
94 77 92 78 56 37 25 18 6 353 354 350 347 348 353 2 3 357 356 2 0 360 356 350 335 307 274 260 275 272 293 275 268 265 264 258 259 254 265 273 284 311 309 326
117 145 146 62 23 28 10 7 7 2 11 1 356 4 2 352 352 350 353 354 354 355 354 354 350 332 303 284 272 257 278 287 274 271 270 265 257 252 257 266 287 284 280 287
97 108 48 320 345 52 21 353 344 348 336 335 337 340 340 342 339 345 353 350 347 353 353 357 359 360 344 333 273 274 278 283 285 279 285 269 262 259 249 260 274 287 270 277
87 75 3 16 349 341 335 329 326 323 322 337 331 333 343 339 339 342 348 346 351 351 351 355 356 1 2 348 349 328 288 307 281 273 285 289 270 260 253 260 265 258 262 281
27 326 334 25 1 8 345 338 329 338 354 351 343 325 338 327 341 341 346 349 348 347 346 351 344 359 7 3 355 341 303 323 308 299 283 278 286 268 276 268 270 270 261 286
332 28 46 9 339 345 358 11 5 1 359 1 356 356 355 352 346 338 336 337 338 344 342 344 340 347 354 348 350 357 345 330 335 283 296 274 277 277 274 266 265 268 284 282
331 30 10 338 328 17 9 6 2 359 356 356 353 350 346 344 346 347 352 348 343 346 344 343 339 344 354 341 342 344 359 353 352 340 297 312 296 276 273 270 252 263 260 272
14 336 316 20 13 8 6 357 355 354 349 349 346 343 349 348 343 349 350 345 340 340 344 349 350 337 340 332 340 339 342 348 342 344 339 319 314 307 274 270 271 267 273 267
325 3 16 7 3 358 356 355 351 348 351 343 340 349 346 348 350 344 345 352 337 340 340 339 336 333 332 333 328 328 336 336 347 334 337 332 321 308 290 291 286 270 275 263
14 12 6 358 354 349 348 346 346 343 342 339 350 347 351 351 349 349 352 353 346 347 349 349 343 336 329 320 323 332 328 328 339 327 327 326 334 318 299 297 277 282 270 267
11 3 352 351 350 348 344 343 341 343 342 353 347 351 347 345 354 354 347 353 353 351 342 353 355 347 328 321 331 333 331 333 322 317 321 326 326 327 322 302 304 285 274 267
360 351 348 347 347 339 339 346 342 345 348 351 347 345 346 349 356 344 347 348 350 354 351 351 341 344 339 326 326 338 330 333 334 354 341 319 314 316 317 298 281 291 279 266
339 341 337 341 338 335 355 337 341 341 350 336 343 354 353 350 345 347 2 358 353 353 351 355 355 351 352 356 359 360 8 8 357 342 345 345 336 330 324 316 291 275 289 270
329 329 322 342 333 341 347 336 342 350 347 346 348 349 353 345 348 357 349 1 0 0 7 4 4 12 23 17 18 22 9 3 359 354 356 353 339 333 328 327 318 295 278 283
321 314 329 324 330 348 339 341 339 354 349 350 346 339 348 337 346 354 353 355 357 355 352 357 4 8 8 11 10 12 9 358 353 349 351 353 346 338 331 323 313 309 309 277
313 318 326 313 341 344 330 330 338 353 342 352 334 339 358 340 344 353 352 357 348 350 353 0 355 2 4 9 353 353 350 347 344 348 350 357 354 355 360 13 38 355 333 310
313 299 297 331 349 330 323 331 350 337 349 339 334 355 1 352 338 341 348 354 355 348 348 350 354 359 355 354 353 347 345 348 352 354 353 360 6 14 10 34 53 39 355 296
327 322 308 324 325 314 317 339 332 333 347 331 337 353 352 346 336 341 355 358 346 352 360 354 345 350 357 352 350 351 353 356 354 355 357 1 9 15 18 23 25 15 18 23